N223FC KISM-

Flight info

Callsign N223FC
Flight time N/A
Altitude VFR
Route VFR SW
Aircraft PA28/L-DOV/C

Departure

Time 2026-04-22 01:15
Airport Kissimmee Gateway Airport (KISM)

Arrival

Time N/A
Airport -
Time Latitude Longitude Altitude Speed Heading
2026-04-22 01:12 28.20887 -81.82803 133 ft 0 kts 178°
2026-04-22 01:14 28.20838 -81.82734 132 ft 0 kts 39°
2026-04-22 01:14 28.20496 -81.82812 138 ft 0 kts 43°
2026-04-22 01:14 28.20590 -81.82803 138 ft 36 kts
2026-04-22 01:14 28.20955 -81.82810 241 ft 58 kts
2026-04-22 01:15 28.21374 -81.82852 455 ft 63 kts 360°
2026-04-22 01:15 28.21800 -81.82971 675 ft 65 kts 352°
2026-04-22 01:15 28.22286 -81.83098 848 ft 75 kts 355°
2026-04-22 01:15 28.22709 -81.83452 1055 ft 90 kts 307°
2026-04-22 01:16 28.22685 -81.84215 1176 ft 109 kts 236°
2026-04-22 01:16 28.22120 -81.84768 1365 ft 103 kts 183°
2026-04-22 01:16 28.21511 -81.84653 1495 ft 90 kts 142°
2026-04-22 01:16 28.20943 -81.84243 1517 ft 98 kts 131°
2026-04-22 01:17 28.20444 -81.83732 1583 ft 94 kts 130°
2026-04-22 01:17 28.19951 -81.83211 1560 ft 97 kts 131°
2026-04-22 01:17 28.19456 -81.82734 1457 ft 95 kts 133°
2026-04-22 01:17 28.18952 -81.82225 1414 ft 98 kts 131°
2026-04-22 01:18 28.18438 -81.81693 1289 ft 103 kts 130°
2026-04-22 01:18 28.17887 -81.81151 1190 ft 106 kts 131°
2026-04-22 01:18 28.17312 -81.80640 1173 ft 100 kts 134°
2026-04-22 01:18 28.16740 -81.80339 1193 ft 89 kts 165°
2026-04-22 01:19 28.16111 -81.80394 1108 ft 93 kts 180°
2026-04-22 01:19 28.15459 -81.80479 1178 ft 94 kts 179°
2026-04-22 01:19 28.14812 -81.80542 1229 ft 91 kts 179°
2026-04-22 01:19 28.14177 -81.80624 1293 ft 93 kts 176°
2026-04-22 01:20 28.13519 -81.80721 1378 ft 99 kts 176°
2026-04-22 01:20 28.12824 -81.80842 1471 ft 105 kts 182°
2026-04-22 01:20 28.12358 -81.81038 1503 ft 113 kts 200°
2026-04-22 01:20 28.11530 -81.81893 1397 ft 127 kts 226°
2026-04-22 01:21 28.11083 -81.82713 1323 ft 118 kts 238°
2026-04-22 01:21 28.10685 -81.83551 1220 ft 123 kts 233°
2026-04-22 01:21 28.10284 -81.84426 1085 ft 126 kts 238°
2026-04-22 01:21 28.09890 -81.85253 1158 ft 111 kts 235°
2026-04-22 01:22 28.09495 -81.85999 1197 ft 110 kts 231°
2026-04-22 01:22 28.09222 -81.86797 1296 ft 112 kts 257°
2026-04-22 01:22 28.09120 -81.87686 1307 ft 119 kts 263°
2026-04-22 01:22 28.09041 -81.88650 1220 ft 122 kts 263°
2026-04-22 01:23 28.08983 -81.89276 1162 ft 120 kts 262°
2026-04-22 01:23 28.08888 -81.90229 1115 ft 125 kts 263°
2026-04-22 01:23 28.08786 -81.91166 1253 ft 117 kts 260°
2026-04-22 01:23 28.08714 -81.92053 1241 ft 115 kts 262°
2026-04-22 01:24 28.08563 -81.93305 1150 ft 125 kts 258°
2026-04-22 01:24 28.08470 -81.93957 1153 ft 124 kts 261°
2026-04-22 01:24 28.08343 -81.94892 1240 ft 118 kts 261°
2026-04-22 01:24 28.08195 -81.95815 1274 ft 122 kts 259°
2026-04-22 01:25 28.07922 -81.97031 1304 ft 119 kts 242°
2026-04-22 01:25 28.07701 -81.97620 1305 ft 121 kts 239°
2026-04-22 01:25 28.07337 -81.98428 1309 ft 111 kts 234°
2026-04-22 01:25 28.06913 -81.99175 1322 ft 114 kts 231°
2026-04-22 01:26 28.06462 -81.99896 1272 ft 112 kts 227°
2026-04-22 01:26 28.05983 -82.00636 1273 ft 122 kts 226°
2026-04-22 01:26 28.05487 -82.01424 1297 ft 124 kts 228°
2026-04-22 01:26 28.04938 -82.02194 1256 ft 126 kts 217°
2026-04-22 01:27 28.04236 -82.02530 1238 ft 102 kts 168°
2026-04-22 01:27 28.03532 -82.02531 1216 ft 102 kts 168°
2026-04-22 01:27 28.02833 -82.02488 1218 ft 99 kts 164°
2026-04-22 01:27 28.02137 -82.02423 1223 ft 102 kts 163°
2026-04-22 01:28 28.01405 -82.02349 1191 ft 111 kts 165°
2026-04-22 01:28 28.00702 -82.02573 1083 ft 119 kts 232°
2026-04-22 01:28 28.00540 -82.03491 934 ft 115 kts 261°
2026-04-22 01:28 28.00274 -82.04272 977 ft 92 kts 205°
2026-04-22 01:29 27.99727 -82.04377 920 ft 75 kts 168°
2026-04-22 01:29 27.99304 -82.04144 868 ft 68 kts 125°
2026-04-22 01:29 27.99092 -82.03650 737 ft 72 kts 101°
2026-04-22 01:29 27.99072 -82.03114 621 ft 68 kts 93°
2026-04-22 01:30 27.99067 -82.02582 452 ft 67 kts 95°
2026-04-22 01:30 27.99048 -82.02026 289 ft 73 kts 93°
2026-04-22 01:30 27.99041 -82.01471 154 ft 60 kts 93°
2026-04-22 01:30 27.99041 -82.01123 140 ft 30 kts 91°
2026-04-22 01:31 27.99040 -82.00950 143 ft 18 kts 89°
2026-04-22 01:31 27.99042 -82.00830 145 ft 13 kts 89°
2026-04-22 01:31 27.99037 -82.00792 145 ft 0 kts 101°
2026-04-22 01:31 27.99025 -82.00772 145 ft 2 kts 147°
2026-04-22 01:32 27.99023 -82.00771 145 ft 3 kts 145°
2026-04-22 01:32 27.99021 -82.00770 145 ft 1 kts 148°